EXS1325 GCFV-EICK

Flight info

Callsign EXS1325
Flight time 3h 35m
Altitude 34000
Route VASTO DCT NIPRI/N0449F360 DCT TELMU DCT TABAX DCT SOPOP DCT PETEK DCT BERUX/M079F370 T213 TAMEL/N0449F370 DCT BIBLA DCT SOVIX SOVIX1G
Aircraft A321/M-SDE3FGHIRWY/LB1

Departure

Time 2026-04-27 16:06
Airport Fuerteventura Airport (GCFV)

Arrival

Time 2026-04-27 19:42
Airport Cork International Airport (EICK)
Time Latitude Longitude Altitude Speed Heading
2026-04-27 15:27 28.45331 -13.86830 99 ft 0 kts 272°
2026-04-27 15:56 28.45330 -13.86817 100 ft 3 kts 270°
2026-04-27 15:57 28.45331 -13.86790 98 ft 3 kts 262°
2026-04-27 15:57 28.45336 -13.86763 97 ft 3 kts 249°
2026-04-27 15:57 28.45347 -13.86742 99 ft 3 kts 214°
2026-04-27 15:57 28.45358 -13.86736 97 ft 0 kts 181°
2026-04-27 15:59 28.45357 -13.86736 97 ft 1 kts 181°
2026-04-27 16:00 28.45351 -13.86736 99 ft 1 kts 181°
2026-04-27 16:00 28.45345 -13.86736 99 ft 2 kts 181°
2026-04-27 16:00 28.45307 -13.86736 99 ft 6 kts 180°
2026-04-27 16:00 28.45262 -13.86737 100 ft 6 kts 182°
2026-04-27 16:01 28.45207 -13.86740 101 ft 9 kts 183°
2026-04-27 16:01 28.45146 -13.86742 99 ft 9 kts 176°
2026-04-27 16:01 28.45102 -13.86702 98 ft 9 kts 105°
2026-04-27 16:01 28.45097 -13.86625 98 ft 11 kts 92°
2026-04-27 16:02 28.45033 -13.86577 95 ft 17 kts 178°
2026-04-27 16:02 28.44904 -13.86581 95 ft 19 kts 182°
2026-04-27 16:02 28.44764 -13.86586 86 ft 23 kts 182°
2026-04-27 16:02 28.44590 -13.86592 73 ft 26 kts 181°
2026-04-27 16:03 28.44407 -13.86598 67 ft 27 kts 181°
2026-04-27 16:03 28.44219 -13.86601 61 ft 27 kts 182°
2026-04-27 16:03 28.44024 -13.86611 53 ft 29 kts 182°
2026-04-27 16:03 28.43816 -13.86617 45 ft 30 kts 182°
2026-04-27 16:04 28.43603 -13.86622 40 ft 31 kts 181°
2026-04-27 16:04 28.43400 -13.86630 35 ft 22 kts 181°
2026-04-27 16:04 28.43309 -13.86580 33 ft 15 kts 102°
2026-04-27 16:04 28.43304 -13.86492 34 ft 0 kts 92°
2026-04-27 16:05 28.43313 -13.86455 34 ft 10 kts 53°
2026-04-27 16:05 28.43393 -13.86438 34 ft 18 kts
2026-04-27 16:05 28.43701 -13.86427 32 ft 77 kts
2026-04-27 16:06 28.44419 -13.86406 48 ft 126 kts
2026-04-27 16:06 28.45426 -13.86372 100 ft 161 kts
2026-04-27 16:06 28.46557 -13.86310 585 ft 162 kts
2026-04-27 16:06 28.47627 -13.85931 1210 ft 162 kts 22°
2026-04-27 16:07 28.48630 -13.85356 1820 ft 162 kts 26°
2026-04-27 16:07 28.49672 -13.84726 2054 ft 179 kts 25°
2026-04-27 16:07 28.50827 -13.84028 2196 ft 196 kts 25°
2026-04-27 16:07 28.52104 -13.83264 2315 ft 219 kts 26°
2026-04-27 16:08 28.53524 -13.82420 2576 ft 241 kts 25°
2026-04-27 16:08 28.55043 -13.81522 3240 ft 249 kts 25°
2026-04-27 16:08 28.56590 -13.80606 4025 ft 253 kts 26°
2026-04-27 16:08 28.58161 -13.79676 4833 ft 256 kts 25°
2026-04-27 16:09 28.59761 -13.78733 5532 ft 261 kts 25°
2026-04-27 16:09 28.63055 -13.76799 6939 ft 271 kts 25°
2026-04-27 16:09 28.64740 -13.75814 7646 ft 275 kts 25°
2026-04-27 16:10 28.68188 -13.73795 9039 ft 284 kts 26°
2026-04-27 16:10 28.71786 -13.71813 10263 ft 297 kts 23°
2026-04-27 16:11 28.73749 -13.70820 10416 ft 320 kts 23°
2026-04-27 16:11 28.78071 -13.68669 11019 ft 350 kts 22°
2026-04-27 16:12 28.82575 -13.66402 12252 ft 357 kts 22°
2026-04-27 16:12 28.84855 -13.65240 12881 ft 360 kts 22°
2026-04-27 16:12 28.89478 -13.62876 14114 ft 367 kts 21°
2026-04-27 16:13 28.91848 -13.61775 14675 ft 368 kts 15°
2026-04-27 16:13 28.96915 -13.61255 15742 ft 368 kts 349°
2026-04-27 16:13 28.99398 -13.61914 16283 ft 369 kts 338°
2026-04-27 16:14 29.04264 -13.63838 17366 ft 375 kts 340°
2026-04-27 16:14 29.05053 -13.64148 17541 ft 376 kts 339°
2026-04-27 16:15 29.07681 -13.65212 17993 ft 381 kts 339°
2026-04-27 16:15 29.12724 -13.67181 18985 ft 386 kts 340°
2026-04-27 16:16 29.17861 -13.69167 19858 ft 392 kts 340°
2026-04-27 16:16 29.23054 -13.71199 20767 ft 396 kts 339°
2026-04-27 16:17 29.28295 -13.73264 21692 ft 401 kts 340°
2026-04-27 16:17 29.33636 -13.75224 22583 ft 406 kts 347°
2026-04-27 16:18 29.39318 -13.75410 23421 ft 414 kts
2026-04-27 16:18 29.45066 -13.74466 24131 ft 419 kts
2026-04-27 16:19 29.47961 -13.74002 24508 ft 421 kts
2026-04-27 16:19 29.50868 -13.73541 24853 ft 423 kts
2026-04-27 16:20 29.59659 -13.72135 25910 ft 428 kts
2026-04-27 16:20 29.62611 -13.71658 26256 ft 429 kts
2026-04-27 16:20 29.68550 -13.70700 26942 ft 433 kts
2026-04-27 16:21 29.71532 -13.70218 27262 ft 435 kts
2026-04-27 16:21 29.80569 -13.68760 28200 ft 440 kts
2026-04-27 16:22 29.83613 -13.68269 28496 ft 442 kts
2026-04-27 16:22 29.89720 -13.67276 29084 ft 445 kts
2026-04-27 16:22 29.92784 -13.66777 29384 ft 446 kts
2026-04-27 16:23 29.95868 -13.66276 29664 ft 449 kts
2026-04-27 16:23 30.02030 -13.65275 30275 ft 450 kts
2026-04-27 16:23 30.05117 -13.64772 30614 ft 449 kts
2026-04-27 16:24 30.08207 -13.64270 30938 ft 448 kts
2026-04-27 16:24 30.14387 -13.63266 31569 ft 448 kts
2026-04-27 16:25 30.20548 -13.62261 32212 ft 447 kts
2026-04-27 16:25 30.26712 -13.61250 32860 ft 447 kts
2026-04-27 16:26 30.32873 -13.60238 33501 ft 446 kts
2026-04-27 16:26 30.39019 -13.59230 34108 ft 446 kts
2026-04-27 16:27 30.45161 -13.58231 34607 ft 446 kts
2026-04-27 16:27 30.54346 -13.58017 35305 ft 440 kts 347°
2026-04-27 16:28 30.60329 -13.59315 35757 ft 440 kts 347°
2026-04-27 16:28 30.66364 -13.60604 36205 ft 440 kts 347°
2026-04-27 16:29 30.74379 -13.62327 36780 ft 440 kts 347°
2026-04-27 16:30 30.80406 -13.63630 37027 ft 440 kts 347°
2026-04-27 16:30 30.86432 -13.64939 37024 ft 440 kts 347°
2026-04-27 16:31 31.01461 -13.68200 37024 ft 439 kts 347°
2026-04-27 16:32 31.10489 -13.70170 37032 ft 440 kts 347°
2026-04-27 16:33 31.19517 -13.72131 37031 ft 440 kts 347°
2026-04-27 16:33 31.25524 -13.73448 37034 ft 440 kts 347°
2026-04-27 16:34 31.31543 -13.74769 37037 ft 440 kts 347°
2026-04-27 16:34 31.37556 -13.76092 37042 ft 440 kts 347°
2026-04-27 16:35 31.43544 -13.77408 37038 ft 440 kts 348°
2026-04-27 16:36 31.52589 -13.79384 37042 ft 440 kts 347°
2026-04-27 16:36 31.58614 -13.80702 37044 ft 440 kts 348°
2026-04-27 16:37 31.64639 -13.82029 37049 ft 440 kts 347°
2026-04-27 16:37 31.70662 -13.83363 37046 ft 440 kts 347°
2026-04-27 16:38 31.76685 -13.84698 37045 ft 440 kts 348°
2026-04-27 16:38 31.82709 -13.86030 37039 ft 440 kts 347°
2026-04-27 16:39 31.88731 -13.87361 37052 ft 440 kts 347°
2026-04-27 16:39 31.94751 -13.88701 37047 ft 440 kts 347°
2026-04-27 16:40 32.00740 -13.90025 37047 ft 440 kts 347°
2026-04-27 16:40 32.06759 -13.91368 37047 ft 440 kts 347°
2026-04-27 16:41 32.12786 -13.92708 37052 ft 440 kts 347°
2026-04-27 16:41 32.18804 -13.94052 37048 ft 440 kts 347°
2026-04-27 16:42 32.24821 -13.95397 37049 ft 440 kts 347°
2026-04-27 16:42 32.30837 -13.96745 37048 ft 440 kts 347°
2026-04-27 16:43 32.36852 -13.98092 37047 ft 440 kts 347°
2026-04-27 16:43 32.42829 -13.99417 37051 ft 440 kts 347°
2026-04-27 16:44 32.48842 -14.00766 37051 ft 440 kts 348°
2026-04-27 16:44 32.54889 -14.02128 37051 ft 440 kts 347°
2026-04-27 16:45 32.60862 -14.03475 37052 ft 440 kts 347°
2026-04-27 16:45 32.66876 -14.04836 37051 ft 440 kts 346°
2026-04-27 16:46 32.72891 -14.06194 37053 ft 440 kts 347°
2026-04-27 16:46 32.78914 -14.07553 37060 ft 440 kts 348°
2026-04-27 16:47 32.84923 -14.08913 37058 ft 440 kts 347°
2026-04-27 16:47 32.90944 -14.10284 37058 ft 440 kts 347°
2026-04-27 16:48 32.96962 -14.11646 37055 ft 440 kts 347°
2026-04-27 16:48 33.02964 -14.12912 37059 ft 441 kts 349°
2026-04-27 16:49 33.12113 -14.14212 37060 ft 441 kts 352°
2026-04-27 16:49 33.18220 -14.15046 37061 ft 442 kts 352°
2026-04-27 16:50 33.24317 -14.15958 37056 ft 442 kts 350°
2026-04-27 16:50 33.30424 -14.16900 37056 ft 442 kts 351°
2026-04-27 16:51 33.36534 -14.17830 37057 ft 443 kts 352°
2026-04-27 16:51 33.42647 -14.18748 37065 ft 443 kts 351°
2026-04-27 16:52 33.48761 -14.19667 37061 ft 443 kts 351°
2026-04-27 16:52 33.54875 -14.20595 37062 ft 443 kts 352°
2026-04-27 16:53 33.60987 -14.21528 37061 ft 443 kts 350°
2026-04-27 16:53 33.67098 -14.22449 37079 ft 442 kts 352°
2026-04-27 16:54 33.73199 -14.23376 37074 ft 442 kts 351°
2026-04-27 16:54 33.79294 -14.24303 37073 ft 441 kts 350°
2026-04-27 16:55 33.85382 -14.25230 37069 ft 441 kts 351°
2026-04-27 16:55 33.91470 -14.26159 37071 ft 441 kts 351°
2026-04-27 16:56 33.97559 -14.27092 37069 ft 441 kts 351°
2026-04-27 16:56 34.03624 -14.28021 37069 ft 441 kts 351°
2026-04-27 16:57 34.09717 -14.28956 37068 ft 441 kts 351°
2026-04-27 16:57 34.15811 -14.29893 37072 ft 442 kts 351°
2026-04-27 16:58 34.21897 -14.30833 37074 ft 441 kts 351°
2026-04-27 16:58 34.27987 -14.31776 37074 ft 441 kts 352°
2026-04-27 16:59 34.34076 -14.32710 37072 ft 441 kts 351°
2026-04-27 16:59 34.40167 -14.33644 37074 ft 441 kts 351°
2026-04-27 17:00 34.49301 -14.35054 37073 ft 441 kts 351°
2026-04-27 17:01 34.55395 -14.36005 37077 ft 441 kts 351°
2026-04-27 17:01 34.61482 -14.36956 37074 ft 441 kts 352°
2026-04-27 17:02 34.67576 -14.37906 37076 ft 441 kts 351°
2026-04-27 17:02 34.73674 -14.38850 37079 ft 441 kts 351°
2026-04-27 17:03 34.79761 -14.39807 37076 ft 441 kts 352°
2026-04-27 17:03 34.85844 -14.40755 37076 ft 441 kts 351°
2026-04-27 17:04 34.91884 -14.41702 37080 ft 441 kts 351°
2026-04-27 17:04 34.97975 -14.42654 37077 ft 441 kts 352°
2026-04-27 17:05 35.04065 -14.43605 37077 ft 441 kts 351°
2026-04-27 17:05 35.10156 -14.44563 37078 ft 441 kts 351°
2026-04-27 17:06 35.16245 -14.45522 37079 ft 441 kts 352°
2026-04-27 17:06 35.22331 -14.46482 37081 ft 441 kts 351°
2026-04-27 17:07 35.28420 -14.47447 37078 ft 441 kts 352°
2026-04-27 17:07 35.34509 -14.48410 37080 ft 441 kts 351°
2026-04-27 17:08 35.40598 -14.49372 37087 ft 441 kts 351°
2026-04-27 17:08 35.46683 -14.50332 37085 ft 441 kts 351°
2026-04-27 17:09 35.52769 -14.51295 37088 ft 440 kts 351°
2026-04-27 17:09 35.58844 -14.52277 37091 ft 440 kts 351°
2026-04-27 17:10 35.64955 -14.52529 37089 ft 442 kts
2026-04-27 17:10 35.70967 -14.50879 37086 ft 443 kts 12°
2026-04-27 17:11 35.76970 -14.49087 37077 ft 444 kts 12°
2026-04-27 17:11 35.85985 -14.46389 37082 ft 444 kts 12°
2026-04-27 17:12 35.94953 -14.43672 37089 ft 444 kts 13°
2026-04-27 17:13 36.00959 -14.41848 37089 ft 444 kts 13°
2026-04-27 17:13 36.06950 -14.40035 37089 ft 444 kts 12°
2026-04-27 17:14 36.12952 -14.38214 37090 ft 444 kts 12°
2026-04-27 17:14 36.18945 -14.36390 37089 ft 443 kts 13°
2026-04-27 17:15 36.24932 -14.34572 37082 ft 443 kts 13°
2026-04-27 17:15 36.29915 -14.33058 37082 ft 443 kts 12°
2026-04-27 17:16 36.35914 -14.31227 37082 ft 444 kts 12°
2026-04-27 17:16 36.41908 -14.29385 37084 ft 444 kts 12°
2026-04-27 17:17 36.47906 -14.27546 37088 ft 444 kts 12°
2026-04-27 17:17 36.53905 -14.25709 37088 ft 444 kts 12°
2026-04-27 17:18 36.62899 -14.22942 37090 ft 444 kts 12°
2026-04-27 17:18 36.68904 -14.21090 37085 ft 444 kts 13°
2026-04-27 17:19 36.74912 -14.19243 37054 ft 445 kts 13°
2026-04-27 17:19 36.80945 -14.17383 37067 ft 447 kts 12°
2026-04-27 17:20 36.86975 -14.15513 37084 ft 447 kts 12°
2026-04-27 17:20 36.93018 -14.13638 37090 ft 447 kts 12°
2026-04-27 17:21 36.99058 -14.11762 37090 ft 447 kts 12°
2026-04-27 17:21 37.05095 -14.09887 37090 ft 447 kts 12°
2026-04-27 17:22 37.11132 -14.08015 37093 ft 447 kts 12°
2026-04-27 17:22 37.17172 -14.06128 37088 ft 447 kts 12°
2026-04-27 17:23 37.23172 -14.04252 37090 ft 447 kts 13°
2026-04-27 17:23 37.29212 -14.02357 37088 ft 447 kts 12°
2026-04-27 17:24 37.35259 -14.00461 37088 ft 447 kts 13°
2026-04-27 17:24 37.41295 -13.98561 37085 ft 448 kts 12°
2026-04-27 17:25 37.47341 -13.96649 37085 ft 448 kts 13°
2026-04-27 17:25 37.53401 -13.94744 37090 ft 448 kts 13°
2026-04-27 17:26 37.59459 -13.92854 37093 ft 448 kts 13°
2026-04-27 17:26 37.65514 -13.90941 37088 ft 449 kts 13°
2026-04-27 17:27 37.71566 -13.89007 37090 ft 449 kts 12°
2026-04-27 17:27 37.77620 -13.87085 37092 ft 449 kts 12°
2026-04-27 17:28 37.83668 -13.85160 37089 ft 449 kts 12°
2026-04-27 17:29 37.92778 -13.82262 37075 ft 450 kts 13°
2026-04-27 17:29 37.98863 -13.80321 37075 ft 451 kts 13°
2026-04-27 17:30 38.04909 -13.78389 37082 ft 451 kts 13°
2026-04-27 17:30 38.14051 -13.75462 37082 ft 452 kts 13°
2026-04-27 17:31 38.19911 -13.72513 37077 ft 454 kts 24°
2026-04-27 17:31 38.25671 -13.69178 37073 ft 455 kts 23°
2026-04-27 17:32 38.34330 -13.64186 37088 ft 455 kts 22°
2026-04-27 17:33 38.40105 -13.60843 37075 ft 456 kts 23°
2026-04-27 17:33 38.45887 -13.57478 37086 ft 456 kts 24°
2026-04-27 17:34 38.51667 -13.54114 37086 ft 457 kts 24°
2026-04-27 17:34 38.57445 -13.50743 37088 ft 457 kts 23°
2026-04-27 17:35 38.63231 -13.47351 37073 ft 458 kts 24°
2026-04-27 17:35 38.69034 -13.43961 37081 ft 459 kts 24°
2026-04-27 17:36 38.74848 -13.40568 37081 ft 459 kts 23°
2026-04-27 17:36 38.80661 -13.37158 37085 ft 460 kts 23°
2026-04-27 17:37 38.86485 -13.33727 37071 ft 460 kts 23°
2026-04-27 17:37 38.92311 -13.30300 37082 ft 461 kts 24°
2026-04-27 17:38 38.98142 -13.26861 37083 ft 461 kts 23°
2026-04-27 17:38 39.03974 -13.23405 37086 ft 462 kts 24°
2026-04-27 17:39 39.09772 -13.19964 37089 ft 462 kts 23°
2026-04-27 17:39 39.15622 -13.16495 37085 ft 462 kts 23°
2026-04-27 17:40 39.21468 -13.13021 37087 ft 463 kts 24°
2026-04-27 17:40 39.27317 -13.09545 37082 ft 463 kts 24°
2026-04-27 17:41 39.33168 -13.06055 37085 ft 463 kts 24°
2026-04-27 17:41 39.39028 -13.02562 37084 ft 464 kts 24°
2026-04-27 17:42 39.44891 -12.99051 37081 ft 465 kts 24°
2026-04-27 17:42 39.50761 -12.95522 37093 ft 465 kts 24°
2026-04-27 17:43 39.56621 -12.91994 37097 ft 465 kts 24°
2026-04-27 17:43 39.62499 -12.88451 37094 ft 465 kts 24°
2026-04-27 17:44 39.68373 -12.84911 37092 ft 465 kts 24°
2026-04-27 17:44 39.74238 -12.81364 37094 ft 465 kts 24°
2026-04-27 17:45 39.80116 -12.77809 37091 ft 465 kts 24°
2026-04-27 17:45 39.85992 -12.74235 37083 ft 466 kts 24°
2026-04-27 17:46 39.91867 -12.70657 37089 ft 466 kts 24°
2026-04-27 17:46 39.97745 -12.67078 37091 ft 466 kts 24°
2026-04-27 17:47 40.03590 -12.63510 37092 ft 467 kts 24°
2026-04-27 17:47 40.09472 -12.59922 37105 ft 466 kts 24°
2026-04-27 17:48 40.15359 -12.56328 37092 ft 466 kts 24°
2026-04-27 17:48 40.21230 -12.52728 37091 ft 466 kts 24°
2026-04-27 17:49 40.27103 -12.49114 37102 ft 467 kts 24°
2026-04-27 17:49 40.32981 -12.45494 37097 ft 467 kts 24°
2026-04-27 17:50 40.38862 -12.41870 37097 ft 467 kts 24°
2026-04-27 17:50 40.44879 -12.38726 37094 ft 465 kts 12°
2026-04-27 17:50 40.48052 -12.37984 37103 ft 463 kts
2026-04-27 17:51 40.54447 -12.36920 37097 ft 463 kts
2026-04-27 17:51 40.60848 -12.35852 37097 ft 464 kts
2026-04-27 17:52 40.67246 -12.34774 37101 ft 464 kts
2026-04-27 17:52 40.72574 -12.33879 37111 ft 464 kts
2026-04-27 17:53 40.80059 -12.32621 37107 ft 464 kts
2026-04-27 17:53 40.86459 -12.31538 37103 ft 464 kts
2026-04-27 17:54 40.92875 -12.30452 37105 ft 464 kts
2026-04-27 17:54 40.99286 -12.29371 37109 ft 464 kts
2026-04-27 17:55 41.05698 -12.28279 37111 ft 464 kts
2026-04-27 17:55 41.12104 -12.27185 37121 ft 465 kts
2026-04-27 17:56 41.18515 -12.26082 37121 ft 464 kts
2026-04-27 17:56 41.24925 -12.24992 37124 ft 464 kts
2026-04-27 17:57 41.30253 -12.24092 37122 ft 464 kts
2026-04-27 17:57 41.36661 -12.22999 37128 ft 464 kts
2026-04-27 17:58 41.43069 -12.21903 37125 ft 464 kts
2026-04-27 17:58 41.49477 -12.20792 37124 ft 464 kts
2026-04-27 17:59 41.55888 -12.19692 37137 ft 464 kts
2026-04-27 17:59 41.62297 -12.18588 37129 ft 464 kts
2026-04-27 18:00 41.68704 -12.17470 37128 ft 464 kts
2026-04-27 18:00 41.75110 -12.16357 37131 ft 464 kts
2026-04-27 18:01 41.81515 -12.15252 37142 ft 464 kts
2026-04-27 18:01 41.87916 -12.14135 37134 ft 464 kts
2026-04-27 18:02 41.94317 -12.13009 37136 ft 464 kts
2026-04-27 18:02 42.00714 -12.11890 37149 ft 463 kts
2026-04-27 18:03 42.07102 -12.10777 37155 ft 462 kts
2026-04-27 18:03 42.13444 -12.09656 37151 ft 462 kts
2026-04-27 18:04 42.19814 -12.08538 37156 ft 461 kts
2026-04-27 18:04 42.26220 -12.07409 37153 ft 461 kts
2026-04-27 18:05 42.32544 -12.06291 37149 ft 461 kts
2026-04-27 18:05 42.38901 -12.05164 37155 ft 460 kts
2026-04-27 18:06 42.45250 -12.04040 37149 ft 460 kts
2026-04-27 18:06 42.51607 -12.02910 37133 ft 461 kts
2026-04-27 18:07 42.57972 -12.01776 37141 ft 461 kts
2026-04-27 18:07 42.64347 -12.00640 37168 ft 461 kts
2026-04-27 18:08 42.70641 -11.98887 37169 ft 464 kts 15°
2026-04-27 18:08 42.76810 -11.96303 37176 ft 464 kts 14°
2026-04-27 18:09 42.82985 -11.93736 37178 ft 463 kts 14°
2026-04-27 18:09 42.89148 -11.91180 37171 ft 463 kts 16°
2026-04-27 18:10 42.95304 -11.88620 37165 ft 462 kts 15°
2026-04-27 18:10 43.01456 -11.86044 37176 ft 462 kts 15°
2026-04-27 18:11 43.07604 -11.83460 37171 ft 462 kts 14°
2026-04-27 18:11 43.13756 -11.80879 37170 ft 462 kts 15°
2026-04-27 18:12 43.19893 -11.78302 37168 ft 462 kts 15°
2026-04-27 18:12 43.25996 -11.75728 37181 ft 461 kts 15°
2026-04-27 18:13 43.32129 -11.73131 37176 ft 461 kts 14°
2026-04-27 18:13 43.38266 -11.70535 37171 ft 461 kts 14°
2026-04-27 18:14 43.44399 -11.67939 37183 ft 461 kts 15°
2026-04-27 18:14 43.50532 -11.65336 37183 ft 461 kts 14°
2026-04-27 18:15 43.56664 -11.62725 37183 ft 461 kts 15°
2026-04-27 18:15 43.62796 -11.60099 37178 ft 461 kts 15°
2026-04-27 18:16 43.68927 -11.57463 37190 ft 461 kts 14°
2026-04-27 18:16 43.75056 -11.54833 37189 ft 461 kts 14°
2026-04-27 18:17 43.81183 -11.52213 37190 ft 461 kts 16°
2026-04-27 18:17 43.87304 -11.49586 37203 ft 460 kts 15°
2026-04-27 18:18 43.93407 -11.46945 37204 ft 459 kts 15°
2026-04-27 18:18 43.99501 -11.44319 37205 ft 458 kts 16°
2026-04-27 18:19 44.05585 -11.41686 37223 ft 457 kts 15°
2026-04-27 18:19 44.11605 -11.39066 37220 ft 455 kts 15°
2026-04-27 18:20 44.17639 -11.36430 37218 ft 454 kts 15°
2026-04-27 18:20 44.23656 -11.33805 37217 ft 453 kts 16°
2026-04-27 18:21 44.29670 -11.31179 37214 ft 452 kts 15°
2026-04-27 18:21 44.35681 -11.28548 37192 ft 453 kts 15°
2026-04-27 18:22 44.41706 -11.25911 37186 ft 454 kts 15°
2026-04-27 18:22 44.47736 -11.23255 37214 ft 454 kts 17°
2026-04-27 18:23 44.53749 -11.20593 37222 ft 452 kts 17°
2026-04-27 18:23 44.59749 -11.17946 37219 ft 451 kts 15°
2026-04-27 18:24 44.65738 -11.15297 37231 ft 451 kts 16°
2026-04-27 18:24 44.71704 -11.12640 37231 ft 449 kts 16°
2026-04-27 18:25 44.77626 -11.10004 37218 ft 445 kts 16°
2026-04-27 18:25 44.83529 -11.07373 37221 ft 445 kts 15°
2026-04-27 18:26 44.89429 -11.04746 37223 ft 445 kts 15°
2026-04-27 18:26 44.95333 -11.02102 37222 ft 444 kts 16°
2026-04-27 18:27 45.01282 -10.99857 37224 ft 442 kts
2026-04-27 18:27 45.07361 -10.99077 37225 ft 441 kts
2026-04-27 18:28 45.13505 -10.98310 37230 ft 440 kts
2026-04-27 18:28 45.19554 -10.97542 37230 ft 439 kts
2026-04-27 18:29 45.25635 -10.96764 37237 ft 438 kts
2026-04-27 18:29 45.31703 -10.95988 37239 ft 437 kts
2026-04-27 18:30 45.37753 -10.95214 37239 ft 436 kts
2026-04-27 18:30 45.43790 -10.94452 37243 ft 435 kts
2026-04-27 18:31 45.49815 -10.93687 37252 ft 434 kts
2026-04-27 18:31 45.55825 -10.92911 37244 ft 433 kts
2026-04-27 18:32 45.61830 -10.92130 37240 ft 432 kts
2026-04-27 18:32 45.67819 -10.91367 37244 ft 432 kts
2026-04-27 18:33 45.73799 -10.90599 37248 ft 431 kts
2026-04-27 18:33 45.79763 -10.89824 37241 ft 430 kts
2026-04-27 18:34 45.85723 -10.89054 37240 ft 430 kts
2026-04-27 18:34 45.91684 -10.88280 37247 ft 429 kts
2026-04-27 18:35 45.97632 -10.87495 37251 ft 429 kts
2026-04-27 18:35 46.03580 -10.86724 37253 ft 428 kts
2026-04-27 18:36 46.09516 -10.85947 37249 ft 428 kts
2026-04-27 18:36 46.15413 -10.85173 37254 ft 428 kts
2026-04-27 18:37 46.21337 -10.84397 37255 ft 427 kts
2026-04-27 18:37 46.27264 -10.83619 37264 ft 427 kts
2026-04-27 18:38 46.33189 -10.82839 37252 ft 428 kts
2026-04-27 18:38 46.39126 -10.82046 37251 ft 428 kts
2026-04-27 18:39 46.44057 -10.81394 37250 ft 428 kts
2026-04-27 18:39 46.49992 -10.80616 37252 ft 428 kts
2026-04-27 18:40 46.55927 -10.79837 37258 ft 428 kts
2026-04-27 18:40 46.61858 -10.79041 37261 ft 428 kts
2026-04-27 18:41 46.67786 -10.78236 37260 ft 428 kts
2026-04-27 18:41 46.73713 -10.77441 37264 ft 428 kts
2026-04-27 18:42 46.78637 -10.76780 37267 ft 427 kts
2026-04-27 18:42 46.85564 -10.75856 37267 ft 427 kts
2026-04-27 18:43 46.91483 -10.75059 37272 ft 427 kts
2026-04-27 18:43 46.97399 -10.74271 37276 ft 427 kts
2026-04-27 18:44 47.03272 -10.73476 37276 ft 426 kts
2026-04-27 18:44 47.09183 -10.72662 37273 ft 427 kts
2026-04-27 18:45 47.15099 -10.71850 37285 ft 426 kts
2026-04-27 18:45 47.20999 -10.71047 37285 ft 426 kts
2026-04-27 18:46 47.26904 -10.70248 37287 ft 426 kts
2026-04-27 18:46 47.32798 -10.69445 37288 ft 425 kts
2026-04-27 18:47 47.38686 -10.68641 37290 ft 424 kts
2026-04-27 18:47 47.44561 -10.67826 37297 ft 424 kts
2026-04-27 18:48 47.50430 -10.67012 37304 ft 423 kts
2026-04-27 18:48 47.56290 -10.66204 37306 ft 422 kts
2026-04-27 18:49 47.62135 -10.65398 37308 ft 421 kts
2026-04-27 18:49 47.67969 -10.64593 37309 ft 421 kts
2026-04-27 18:50 47.73793 -10.63769 37293 ft 420 kts
2026-04-27 18:50 47.79606 -10.62966 37303 ft 420 kts
2026-04-27 18:51 47.85388 -10.62171 37308 ft 419 kts
2026-04-27 18:51 47.91198 -10.61364 37323 ft 419 kts
2026-04-27 18:52 47.97007 -10.60544 37301 ft 419 kts
2026-04-27 18:53 48.05293 -10.59370 37310 ft 419 kts
2026-04-27 18:53 48.11104 -10.58549 37313 ft 420 kts
2026-04-27 18:54 48.16926 -10.57726 37302 ft 420 kts
2026-04-27 18:54 48.22741 -10.56909 37310 ft 420 kts
2026-04-27 18:55 48.28549 -10.56081 37319 ft 420 kts
2026-04-27 18:55 48.34368 -10.55241 37325 ft 420 kts
2026-04-27 18:56 48.40183 -10.54411 37322 ft 420 kts
2026-04-27 18:56 48.45999 -10.53581 37323 ft 420 kts
2026-04-27 18:57 48.51812 -10.52749 37329 ft 420 kts
2026-04-27 18:57 48.57589 -10.51918 37330 ft 420 kts
2026-04-27 18:58 48.63438 -10.51077 37325 ft 420 kts
2026-04-27 18:58 48.69219 -10.50254 37330 ft 419 kts
2026-04-27 18:59 48.74883 -10.48452 37336 ft 415 kts 23°
2026-04-27 18:59 48.80212 -10.45104 37338 ft 415 kts 24°
2026-04-27 19:00 48.85544 -10.41764 37330 ft 415 kts 24°
2026-04-27 19:00 48.90881 -10.38414 37338 ft 415 kts 24°
2026-04-27 19:01 48.96217 -10.35061 37341 ft 415 kts 24°
2026-04-27 19:01 49.01547 -10.31694 37342 ft 415 kts 24°
2026-04-27 19:02 49.06878 -10.28309 37336 ft 415 kts 24°
2026-04-27 19:02 49.12208 -10.24929 37340 ft 415 kts 24°
2026-04-27 19:03 49.17540 -10.21538 37359 ft 415 kts 24°
2026-04-27 19:03 49.22839 -10.18161 37360 ft 415 kts 24°
2026-04-27 19:04 49.28164 -10.14749 37353 ft 415 kts 24°
2026-04-27 19:04 49.33485 -10.11350 37346 ft 415 kts 24°
2026-04-27 19:05 49.38807 -10.07928 37360 ft 414 kts 24°
2026-04-27 19:05 49.44124 -10.04496 37359 ft 414 kts 24°
2026-04-27 19:06 49.49443 -10.01066 37358 ft 414 kts 24°
2026-04-27 19:06 49.54761 -9.97630 37353 ft 414 kts 24°
2026-04-27 19:07 49.60076 -9.94189 37364 ft 414 kts 24°
2026-04-27 19:07 49.65387 -9.90739 37375 ft 414 kts 24°
2026-04-27 19:08 49.70697 -9.87289 37368 ft 414 kts 24°
2026-04-27 19:08 49.76007 -9.83832 37372 ft 414 kts 24°
2026-04-27 19:09 49.81301 -9.80363 37364 ft 413 kts 24°
2026-04-27 19:09 49.86568 -9.76905 37369 ft 413 kts 24°
2026-04-27 19:10 49.91897 -9.73400 37368 ft 413 kts 24°
2026-04-27 19:10 49.97187 -9.69903 37368 ft 413 kts 24°
2026-04-27 19:11 50.02482 -9.66403 37364 ft 413 kts 24°
2026-04-27 19:11 50.07743 -9.62925 37367 ft 413 kts 24°
2026-04-27 19:12 50.13033 -9.59420 37371 ft 413 kts 24°
2026-04-27 19:12 50.18325 -9.55900 37383 ft 413 kts 24°
2026-04-27 19:13 50.23606 -9.52364 37392 ft 413 kts 24°
2026-04-27 19:13 50.28890 -9.48827 37379 ft 413 kts 24°
2026-04-27 19:14 50.34172 -9.45298 37385 ft 413 kts 24°
2026-04-27 19:14 50.39451 -9.41754 37385 ft 412 kts 24°
2026-04-27 19:15 50.44720 -9.38202 37033 ft 411 kts 24°
2026-04-27 19:15 50.47346 -9.36432 36769 ft 409 kts 24°
2026-04-27 19:15 50.49918 -9.34694 36513 ft 408 kts 24°
2026-04-27 19:15 50.52521 -9.32933 36252 ft 406 kts 24°
2026-04-27 19:16 50.55113 -9.31176 36008 ft 405 kts 24°
2026-04-27 19:16 50.56859 -9.29991 35831 ft 404 kts 24°
2026-04-27 19:16 50.60269 -9.27675 35511 ft 401 kts 24°
2026-04-27 19:16 50.62820 -9.25943 35256 ft 398 kts 24°
2026-04-27 19:17 50.65351 -9.24222 35016 ft 394 kts 24°
2026-04-27 19:17 50.67859 -9.22517 34755 ft 390 kts 24°
2026-04-27 19:17 50.70402 -9.21035 33935 ft 395 kts 15°
2026-04-27 19:17 50.73122 -9.20115 32790 ft 405 kts 14°
2026-04-27 19:18 50.75898 -9.19223 32107 ft 405 kts 13°
2026-04-27 19:18 50.78639 -9.18360 31641 ft 399 kts 13°
2026-04-27 19:18 50.81353 -9.17511 31117 ft 395 kts 13°
2026-04-27 19:18 50.84035 -9.16667 30577 ft 391 kts 13°
2026-04-27 19:19 50.86698 -9.15817 29977 ft 388 kts 13°
2026-04-27 19:19 50.89295 -9.14979 29376 ft 384 kts 13°
2026-04-27 19:19 50.91904 -9.14131 28779 ft 381 kts 13°
2026-04-27 19:19 50.94487 -9.13293 28199 ft 377 kts 13°
2026-04-27 19:20 50.97043 -9.12469 27635 ft 374 kts 13°
2026-04-27 19:20 50.99581 -9.11650 27046 ft 371 kts 12°
2026-04-27 19:20 51.02105 -9.10832 26479 ft 368 kts 12°
2026-04-27 19:20 51.04604 -9.10020 25932 ft 366 kts 12°
2026-04-27 19:21 51.07091 -9.09216 25385 ft 363 kts 12°
2026-04-27 19:21 51.09555 -9.08421 24853 ft 360 kts 12°
2026-04-27 19:21 51.12007 -9.07627 24330 ft 358 kts 12°
2026-04-27 19:21 51.14436 -9.06836 23788 ft 355 kts 12°
2026-04-27 19:22 51.16849 -9.06047 23177 ft 353 kts 12°
2026-04-27 19:22 51.19245 -9.05262 22556 ft 352 kts 12°
2026-04-27 19:22 51.21623 -9.04483 22097 ft 346 kts 12°
2026-04-27 19:22 51.23971 -9.03714 21667 ft 340 kts 11°
2026-04-27 19:23 51.26268 -9.02962 21236 ft 335 kts 11°
2026-04-27 19:23 51.28538 -9.02217 20848 ft 330 kts 11°
2026-04-27 19:23 51.30774 -9.01484 20441 ft 326 kts 11°
2026-04-27 19:23 51.32983 -9.00759 20047 ft 322 kts 11°
2026-04-27 19:24 51.35166 -9.00042 19654 ft 319 kts 11°
2026-04-27 19:24 51.37326 -8.99331 19264 ft 315 kts 11°
2026-04-27 19:24 51.39462 -8.98627 18884 ft 312 kts 11°
2026-04-27 19:24 51.41549 -8.97941 18488 ft 309 kts 11°
2026-04-27 19:25 51.43644 -8.97254 18099 ft 305 kts 11°
2026-04-27 19:25 51.45711 -8.96574 17728 ft 301 kts 11°
2026-04-27 19:25 51.47753 -8.95901 17365 ft 298 kts 11°
2026-04-27 19:25 51.49770 -8.95233 17011 ft 294 kts 11°
2026-04-27 19:26 51.51759 -8.94573 16658 ft 291 kts 11°
2026-04-27 19:26 51.53737 -8.93917 16317 ft 288 kts 11°
2026-04-27 19:26 51.55691 -8.93268 15972 ft 285 kts 11°
2026-04-27 19:26 51.57627 -8.92624 15635 ft 283 kts 11°
2026-04-27 19:27 51.58902 -8.92200 15425 ft 282 kts 11°
2026-04-27 19:27 51.60822 -8.91564 15086 ft 280 kts 11°
2026-04-27 19:27 51.62726 -8.90931 14750 ft 279 kts 11°
2026-04-27 19:27 51.64627 -8.90299 14419 ft 279 kts 11°
2026-04-27 19:28 51.66527 -8.89667 14071 ft 278 kts 11°
2026-04-27 19:28 51.68417 -8.89038 13720 ft 277 kts 11°
2026-04-27 19:28 51.70294 -8.88413 13383 ft 275 kts 11°
2026-04-27 19:28 51.72163 -8.87788 13050 ft 273 kts 11°
2026-04-27 19:29 51.74024 -8.87162 12709 ft 272 kts 11°
2026-04-27 19:29 51.75864 -8.86542 12376 ft 270 kts 11°
2026-04-27 19:29 51.77696 -8.85925 12038 ft 267 kts 11°
2026-04-27 19:29 51.79506 -8.85317 11702 ft 265 kts 11°
2026-04-27 19:30 51.81286 -8.84720 11375 ft 263 kts 11°
2026-04-27 19:30 51.83074 -8.84122 11032 ft 262 kts 12°
2026-04-27 19:30 51.84874 -8.83518 10463 ft 269 kts 12°
2026-04-27 19:30 51.86716 -8.82899 9981 ft 271 kts 12°
2026-04-27 19:31 51.88561 -8.82278 9596 ft 270 kts 12°
2026-04-27 19:31 51.90389 -8.81664 9231 ft 267 kts 12°
2026-04-27 19:31 51.92190 -8.81059 8872 ft 260 kts 12°
2026-04-27 19:31 51.93924 -8.80476 8529 ft 250 kts 12°
2026-04-27 19:32 51.95586 -8.79916 8206 ft 237 kts 11°
2026-04-27 19:32 51.97160 -8.79382 7859 ft 226 kts 12°
2026-04-27 19:32 51.98668 -8.78852 7506 ft 219 kts 12°
2026-04-27 19:32 52.00141 -8.78322 7185 ft 216 kts 12°
2026-04-27 19:33 52.01603 -8.77795 6856 ft 215 kts 12°
2026-04-27 19:33 52.02588 -8.77437 6627 ft 214 kts 12°
2026-04-27 19:33 52.04510 -8.76751 6145 ft 214 kts 12°
2026-04-27 19:33 52.05948 -8.76240 5782 ft 207 kts 12°
2026-04-27 19:34 52.07304 -8.75767 5540 ft 191 kts 12°
2026-04-27 19:34 52.08559 -8.75346 5308 ft 180 kts 12°
2026-04-27 19:34 52.09773 -8.74948 4934 ft 178 kts 12°
2026-04-27 19:34 52.10980 -8.74492 4540 ft 178 kts 22°
2026-04-27 19:35 52.11855 -8.73136 4173 ft 178 kts 63°
2026-04-27 19:35 52.11934 -8.71147 3816 ft 183 kts 103°
2026-04-27 19:35 52.11375 -8.69307 3456 ft 185 kts 116°
2026-04-27 19:35 52.10696 -8.67520 3082 ft 186 kts 117°
2026-04-27 19:36 52.10000 -8.65758 3007 ft 186 kts 118°
2026-04-27 19:36 52.09248 -8.64038 3004 ft 190 kts 130°
2026-04-27 19:36 52.08019 -8.63173 3036 ft 199 kts 166°
2026-04-27 19:36 52.06692 -8.62571 3010 ft 197 kts 156°
2026-04-27 19:37 52.05412 -8.61789 3028 ft 196 kts 156°
2026-04-27 19:37 52.04135 -8.61015 3018 ft 196 kts 157°
2026-04-27 19:37 52.02859 -8.60251 3014 ft 195 kts 156°
2026-04-27 19:37 52.01582 -8.59487 3021 ft 195 kts 156°
2026-04-27 19:38 52.00303 -8.58724 3010 ft 197 kts 157°
2026-04-27 19:38 51.99020 -8.57959 3007 ft 196 kts 158°
2026-04-27 19:38 51.97740 -8.57196 3008 ft 196 kts 157°
2026-04-27 19:38 51.96484 -8.56450 2896 ft 183 kts 156°
2026-04-27 19:39 51.95339 -8.55770 2677 ft 168 kts 156°
2026-04-27 19:39 51.94280 -8.55139 2467 ft 162 kts 156°
2026-04-27 19:39 51.93221 -8.54508 2252 ft 160 kts 156°
2026-04-27 19:39 51.92194 -8.53897 2043 ft 159 kts 156°
2026-04-27 19:40 51.91155 -8.53280 1828 ft 159 kts 156°
2026-04-27 19:40 51.90123 -8.52667 1604 ft 156 kts 157°
2026-04-27 19:40 51.89101 -8.52060 1399 ft 159 kts 157°
2026-04-27 19:40 51.88071 -8.51450 1175 ft 155 kts 160°
2026-04-27 19:41 51.87077 -8.50854 982 ft 149 kts 159°
2026-04-27 19:41 51.86122 -8.50286 775 ft 144 kts 161°
2026-04-27 19:41 51.85196 -8.49747 584 ft 139 kts 159°
2026-04-27 19:41 51.84312 -8.49218 481 ft 124 kts 159°
2026-04-27 19:42 51.83697 -8.48854 466 ft 67 kts 160°
2026-04-27 19:42 51.83407 -8.48683 468 ft 31 kts 160°
2026-04-27 19:42 51.83298 -8.48558 471 ft 16 kts 123°
2026-04-27 19:42 51.83267 -8.48594 472 ft 11 kts 322°
2026-04-27 19:43 51.83413 -8.48685 470 ft 34 kts 341°
2026-04-27 19:43 51.83681 -8.48837 467 ft 43 kts 340°
2026-04-27 19:43 51.83957 -8.49008 472 ft 42 kts 339°
2026-04-27 19:43 51.84214 -8.49162 476 ft 30 kts 342°
2026-04-27 19:44 51.84323 -8.49076 479 ft 15 kts 57°
2026-04-27 19:44 51.84377 -8.48983 483 ft 9 kts 14°
2026-04-27 19:44 51.84429 -8.49001 480 ft 6 kts 339°
2026-04-27 19:44 51.84452 -8.49016 487 ft 2 kts 339°
2026-04-27 19:45 51.84475 -8.49030 487 ft 5 kts 339°
2026-04-27 19:45 51.84518 -8.49053 491 ft 8 kts 342°
2026-04-27 19:45 51.84580 -8.49089 492 ft 12 kts 340°
2026-04-27 19:45 51.84668 -8.49141 502 ft 13 kts 340°
2026-04-27 19:46 51.84758 -8.49193 503 ft 16 kts 342°
2026-04-27 19:46 51.84868 -8.49236 503 ft 16 kts 343°
2026-04-27 19:46 51.84972 -8.49286 503 ft 15 kts 343°
2026-04-27 19:46 51.85064 -8.49337 503 ft 6 kts 344°
2026-04-27 19:47 51.85091 -8.49309 503 ft 4 kts 57°
2026-04-27 19:47 51.85102 -8.49268 503 ft 3 kts 69°
2026-04-27 19:47 51.85107 -8.49248 503 ft 1 kts 70°
2026-04-27 19:47 51.85108 -8.49242 503 ft 0 kts 70°
2026-04-27 19:48 51.85108 -8.49240 503 ft 0 kts 70°
2026-04-27 19:48 51.85109 -8.49239 503 ft 0 kts 70°